[[{"header":{"parameterUnit":"m.s-1","parameterCategory":1,"la1":30.2991,"la2":30.254,"lo1":-89.0895,"lo2":-89.0444,"dy":0.0017,"dx":0.0017,"nx":28,"ny":28,"refTime":"2026-02-03T03:00:00:Z","depth":0,"parameterNumber":2,"parameterNumberName":"U-component_of_WINDS"},"data":[0,0,0,0,0,0,0,0,0,0,0,0,0,0,0,0,0,0,0,0,0,0,0,0,0,0,0,0,0,0,0,0,0,0,0,0,0,0,0,0,0,0,0,0,0,0,0,0,0,0,0,0,0,0,0,0,0,0,1.4987,1.4987,0,1.5026,1.5026,1.5027,1.507,1.5071,1.5071,1.5072,1.5113,1.5113,1.5114,0,0,0,0,0,0,0,0,0,0,0,0,0,1.4954,1.4954,1.4987,1.4987,1.4988,1.5026,1.5026,1.5027,1.507,1.5071,1.5072,1.5072,1.5113,1.5113,1.5114,0,0,0,0,0,0,0,0,0,0,0,0,0,1.4978,1.4954,1.4987,1.5014,1.5017,1.5026,1.5026,1.5027,1.507,1.5071,1.5072,1.5073,1.5113,1.5113,1.5114,1.51,0,0,1.5116,1.5117,0,0,0,0,0,0,0,0,1.4977,1.4979,1.5009,1.5012,1.5015,1.5044,1.503,1.5051,1.507,1.505,1.5072,1.5073,1.5089,1.5092,1.5097,1.5101,1.5103,1.5116,1.5117,1.5117,1.5117,0,0,0,0,0,0,0,1.4975,1.4978,1.5002,1.501,1.5013,1.5026,1.503,1.5034,1.5064,1.5052,1.5055,1.5059,1.5091,1.5096,1.5099,1.5104,1.5116,1.5117,1.5117,1.5118,1.5104,1.5103,0,0,0,0,0,0,1.4969,1.4976,1.5001,1.5003,1.4998,1.5025,1.503,1.5034,1.5064,1.5069,1.5058,1.5061,1.5095,1.5098,1.51,1.5088,1.5117,1.5118,1.5118,1.5104,1.5103,1.5103,0,0,0,0,0,0,1.4968,1.4971,1.4999,1.4991,1.4995,1.5025,1.5029,1.5034,1.5039,1.5069,1.5074,1.5058,1.5096,1.5099,1.5101,1.509,1.5118,1.5119,1.5105,1.5104,1.5103,1.5062,0,0,0,0,0,0,1.4967,1.497,1.4963,1.499,1.4996,1.4997,1.5028,1.5034,1.5041,1.5044,1.507,1.5075,1.5097,1.5099,1.5101,1.5092,1.5119,1.5106,1.5105,1.5103,1.5065,1.506,1.5056,0,0,0,0,0,1.4965,1.495,1.4963,1.4966,1.4988,1.4997,1.5,1.5025,1.5039,1.5034,1.5054,1.5074,1.5091,1.5099,1.5102,1.5092,1.5107,1.5105,1.5103,1.5067,1.5061,1.5056,0,0,0,0,0,0,1.492,1.4953,1.4968,1.496,1.4976,1.5004,1.4998,1.5017,1.5028,1.5031,1.5062,1.5068,1.5066,1.5079,1.5088,1.5082,1.5102,1.5101,1.5073,1.5068,1.5064,1.5061,1.512,0,0,0,0,0,1.4909,1.4912,1.4942,1.4932,1.4939,1.4967,1.4972,1.499,1.5007,1.5014,1.5033,1.5049,1.5059,1.5064,1.5074,1.5067,1.5075,1.5063,1.5058,1.5054,1.5053,1.5054,1.505,1.5096,1.5096,1.5096,0,0,1.4886,1.4905,1.4905,1.4924,1.4937,1.4942,1.4972,1.4975,1.4979,1.5014,1.5017,1.5032,1.5053,1.5051,1.5051,1.5062,1.5042,1.5052,1.5048,1.5049,1.5052,1.5047,1.5043,1.5095,1.5095,1.5096,0,0,1.4847,1.4861,1.4856,1.487,1.4891,1.4911,1.491,1.4936,1.4948,1.4952,1.498,1.4986,1.5001,1.5016,1.5025,1.4997,1.5018,1.5,1.4976,1.4977,1.4973,1.497,1.4963,1.4959,1.4998,1.4998,1.4998,0,1.4816,1.4823,1.4851,1.4853,1.4862,1.4896,1.4892,1.4905,1.4928,1.4934,1.4946,1.4968,1.4984,1.4988,1.4982,1.4988,1.499,1.4996,1.4971,1.4968,1.4966,1.4959,1.4956,1.4996,1.4996,1.4996,1.4996,0,1.4786,1.4791,1.4785,1.4808,1.4816,1.4815,1.4845,1.485,1.4869,1.4888,1.4894,1.4915,1.4932,1.4934,1.4951,1.4942,1.4948,1.4965,1.4986,1.4959,1.4953,1.4951,1.4993,1.4993,1.4994,1.4995,0,0,1.4717,1.4758,1.4755,1.4768,1.4796,1.4801,1.4804,1.482,1.4826,1.4842,1.4847,1.4861,1.4878,1.4889,1.4909,1.491,1.489,1.4927,1.4928,1.4921,1.4885,1.4872,1.4868,1.4904,1.4904,1.4904,1.4884,0,1.4684,1.469,1.4717,1.4715,1.4722,1.4756,1.4759,1.4778,1.4797,1.4807,1.4829,1.4839,1.486,1.4867,1.4869,1.4892,1.4883,1.4894,1.4911,1.4911,1.4905,1.4865,1.4851,1.4831,1.4881,1.4881,1.4881,0,1.4645,1.4661,1.466,1.4692,1.4696,1.4697,1.4718,1.4726,1.4749,1.4764,1.4778,1.4802,1.4809,1.4829,1.4842,1.4848,1.4858,1.4871,1.487,1.4873,1.4894,1.4868,1.4824,1.4822,1.4877,1.4877,1.4877,0,1.4598,1.4618,1.4621,1.4631,1.4667,1.4668,1.4684,1.4708,1.4718,1.4736,1.4744,1.4762,1.4772,1.4788,1.4817,1.4828,1.4828,1.4849,1.4841,1.4841,1.4839,1.4839,1.4797,1.4843,1.4844,1.4844,1.4844,0,1.4558,1.4557,1.4601,1.4603,1.4604,1.4637,1.4637,1.4656,1.4679,1.4687,1.4718,1.4725,1.4763,1.4775,1.4799,1.4808,1.4812,1.4825,1.4831,1.4823,1.4821,1.4829,1.4832,1.4843,1.4843,1.4843,1.4843,0,1.4504,1.4533,1.454,1.4575,1.4584,1.4583,1.4614,1.4619,1.4642,1.4652,1.4656,1.4692,1.4708,1.474,1.4765,1.4781,1.4785,1.4795,1.4777,1.4781,1.4773,1.4774,1.4735,1.4733,1.4779,1.4779,1.4778,0,1.4478,1.4478,1.4514,1.4522,1.4536,1.4548,1.4559,1.4593,1.4603,1.4633,1.4635,1.4654,1.4671,1.4697,1.4726,1.4747,1.4759,1.4744,1.4762,1.4755,1.4761,1.4761,1.4763,1.474,1.4739,1.4739,1.4738,0,1.4428,1.4443,1.4457,1.4478,1.4491,1.4508,1.4527,1.4532,1.4571,1.4582,1.46,1.4614,1.4641,1.4661,1.4687,1.4705,1.4729,1.4733,1.4733,1.4724,1.4714,1.4722,1.4767,1.4733,1.4734,1.4734,1.4734,1.4735,1.4388,1.4391,1.4418,1.4434,1.4453,1.4471,1.4479,1.4503,1.4518,1.4543,1.4563,1.458,1.4609,1.4646,1.4663,1.4679,1.469,1.4688,1.4688,1.4688,1.4685,1.4711,1.4683,1.4684,1.4684,1.4684,1.4684,0,1.4342,1.4362,1.4376,1.4403,1.4417,1.4439,1.4463,1.4473,1.4488,1.4511,1.4529,1.4552,1.4573,1.4605,1.4629,1.4635,1.4647,1.4641,1.4641,1.4645,1.4673,1.4672,1.4631,1.4631,1.4631,1.4631,1.4631,1.4631,1.4319,1.4327,1.4346,1.4365,1.4385,1.4402,1.4415,1.4433,1.4453,1.4477,1.4494,1.4515,1.4544,1.4571,1.4592,1.4602,1.461,1.46,1.4613,1.4638,1.4643,1.4648,1.4647,1.4601,1.4601,1.4584,1.4584,1.4584]},{"header":{"parameterUnit":"m.s-1","parameterCategory":1,"la1":30.2991,"la2":30.254,"lo1":-89.0895,"lo2":-89.0444,"dy":0.0017,"dx":0.0017,"nx":28,"ny":28,"refTime":"2026-02-03T03:00:00:Z","depth":0,"parameterNumber":3,"parameterNumberName":"V-component_of_WINDS"},"data":[0,0,0,0,0,0,0,0,0,0,0,0,0,0,0,0,0,0,0,0,0,0,0,0,0,0,0,0,0,0,0,0,0,0,0,0,0,0,0,0,0,0,0,0,0,0,0,0,0,0,0,0,0,0,0,0,0,0,3.0938,3.0938,0,3.0873,3.0872,3.0871,3.0878,3.0879,3.088,3.0881,3.0813,3.081,3.0807,0,0,0,0,0,0,0,0,0,0,0,0,0,3.1071,3.1068,3.0938,3.0937,3.0937,3.0873,3.0872,3.0871,3.0878,3.0879,3.0881,3.0882,3.0814,3.081,3.0807,0,0,0,0,0,0,0,0,0,0,0,0,0,3.101,3.1067,3.0938,3.0933,3.0931,3.0873,3.0872,3.0871,3.0878,3.088,3.0881,3.0883,3.0815,3.0811,3.0806,3.0749,0,0,3.0794,3.0792,0,0,0,0,0,0,0,0,3.1013,3.1005,3.0934,3.0933,3.0931,3.0886,3.0894,3.083,3.0878,3.0898,3.0881,3.0883,3.0836,3.083,3.0814,3.0746,3.0743,3.0793,3.0791,3.0789,3.0788,0,0,0,0,0,0,0,3.1017,3.1008,3.0912,3.0933,3.0931,3.0934,3.0927,3.0882,3.0859,3.0896,3.0897,3.0889,3.0835,3.0818,3.0812,3.0742,3.0793,3.079,3.0787,3.0785,3.063,3.0629,0,0,0,0,0,0,3.1023,3.1011,3.0914,3.091,3.0977,3.093,3.0922,3.0899,3.0859,3.0855,3.0888,3.089,3.0824,3.0817,3.081,3.0744,3.0789,3.0785,3.0783,3.0632,3.063,3.0628,0,0,0,0,0,0,3.1026,3.1014,3.0917,3.0961,3.0949,3.0926,3.0899,3.0896,3.0879,3.0853,3.0849,3.0875,3.0825,3.0816,3.0766,3.0742,3.0783,3.0779,3.0634,3.0631,3.0629,3.061,0,0,0,0,0,0,3.103,3.1015,3.0993,3.096,3.0946,3.0873,3.0898,3.0894,3.0872,3.0874,3.0839,3.0835,3.0826,3.0772,3.0762,3.0737,3.0776,3.0636,3.0633,3.063,3.0613,3.0607,3.0603,0,0,0,0,0,3.1034,3.0988,3.0991,3.098,3.0918,3.0872,3.0864,3.0855,3.087,3.0848,3.0832,3.0836,3.0746,3.0767,3.0755,3.0729,3.0637,3.0634,3.063,3.0615,3.0608,3.0603,0,0,0,0,0,0,3.1015,3.0983,3.0987,3.0929,3.0903,3.0873,3.0844,3.0847,3.0816,3.0818,3.0808,3.08,3.0751,3.0735,3.0758,3.0674,3.0694,3.0688,3.0687,3.068,3.0675,3.068,3.0773,0,0,0,0,0,3.1005,3.0971,3.0944,3.0896,3.0883,3.0866,3.0846,3.0842,3.0814,3.0803,3.0783,3.0756,3.0723,3.07,3.0667,3.0611,3.0605,3.0587,3.0582,3.0578,3.0573,3.0547,3.0539,3.0616,3.0617,3.0617,0,0,3.0982,3.096,3.0939,3.0892,3.0871,3.0837,3.0857,3.0818,3.0793,3.0797,3.075,3.0735,3.0704,3.0652,3.0628,3.0637,3.0551,3.0574,3.0571,3.0568,3.0542,3.0535,3.0528,3.0614,3.0614,3.0615,0,0,3.0923,3.0902,3.0862,3.0842,3.0813,3.0803,3.0793,3.0764,3.0754,3.0707,3.0711,3.0681,3.0622,3.0602,3.0584,3.0524,3.0528,3.0514,3.0487,3.0461,3.0455,3.045,3.0432,3.0425,3.0509,3.0509,3.0509,0,3.0897,3.0846,3.084,3.0803,3.0784,3.0789,3.0749,3.073,3.069,3.0677,3.0689,3.0618,3.0598,3.0543,3.053,3.0514,3.0504,3.0517,3.0457,3.0451,3.0446,3.0429,3.0421,3.0507,3.0508,3.0508,3.0508,0,3.0819,3.0783,3.0754,3.072,3.0697,3.0658,3.0648,3.0626,3.0625,3.0615,3.0569,3.0545,3.051,3.0497,3.0494,3.0443,3.045,3.0459,3.0479,3.0438,3.0421,3.0414,3.0505,3.0506,3.0506,3.0507,0,0,3.0742,3.0709,3.0698,3.0685,3.0655,3.0628,3.0592,3.0559,3.0542,3.0516,3.0487,3.0439,3.0449,3.0429,3.0425,3.0402,3.0361,3.0414,3.0414,3.0407,3.0307,3.0302,3.0294,3.0364,3.0362,3.0361,3.0311,0,3.0682,3.0618,3.0615,3.0557,3.0527,3.0534,3.0503,3.0482,3.0473,3.0446,3.0435,3.0403,3.0417,3.0405,3.0383,3.037,3.0341,3.0374,3.0338,3.0336,3.0346,3.0284,3.0277,3.023,3.0304,3.0302,3.0302,0,3.0602,3.0578,3.0518,3.0498,3.0485,3.0457,3.043,3.0404,3.0382,3.0377,3.0358,3.0358,3.0323,3.0345,3.0297,3.032,3.0306,3.0298,3.0296,3.0292,3.0317,3.0281,3.0215,3.0209,3.0291,3.0292,3.0292,0,3.0556,3.0508,3.0468,3.0455,3.043,3.0411,3.0399,3.0379,3.0362,3.0338,3.0327,3.0299,3.0283,3.0262,3.0256,3.0272,3.021,3.023,3.0207,3.0207,3.0193,3.0194,3.0125,3.0181,3.0182,3.0182,3.0182,0,3.049,3.0454,3.0447,3.0422,3.0384,3.0381,3.0343,3.0332,3.0315,3.029,3.0293,3.0269,3.0262,3.0237,3.0232,3.0196,3.0189,3.0185,3.0184,3.0185,3.0186,3.0176,3.0179,3.018,3.018,3.0181,3.0181,0,3.0431,3.0425,3.0382,3.0364,3.0358,3.0331,3.0315,3.0293,3.0286,3.0254,3.0246,3.0234,3.0206,3.0198,3.0163,3.016,3.0119,3.012,3.0126,3.0127,3.0104,3.0107,3.0027,3.0018,3.0079,3.0078,3.0078,0,3.0389,3.0363,3.0343,3.0328,3.0317,3.029,3.0274,3.0271,3.0254,3.0231,3.0211,3.0184,3.0162,3.0117,3.0105,3.008,3.0082,3.0056,3.0078,3.0081,3.0084,3.0087,3.0085,3.0051,3.0051,3.005,3.005,0,3.0318,3.0318,3.0294,3.0272,3.0253,3.0234,3.0216,3.0203,3.0198,3.0179,3.0151,3.0135,3.0102,3.0075,3.0051,3.004,3.0045,3.0043,3.0037,3.0038,3.0044,3.0043,3.0117,3.0045,3.0045,3.0046,3.0046,3.0046,3.0268,3.0247,3.0231,3.0207,3.0194,3.0179,3.0158,3.015,3.0128,3.0102,3.0102,3.0073,3.0056,3.0024,3.0012,2.999,2.9998,2.9987,2.9985,2.9983,2.9983,3.0047,2.9985,2.9985,2.9985,2.9985,2.9985,0,3.0199,3.0191,3.0168,3.0145,3.0127,3.0136,3.0118,3.0102,3.0077,3.0061,3.0041,3.0012,2.9988,2.9977,2.9953,2.9938,2.994,2.9932,2.9934,2.9932,2.9975,2.9985,2.9931,2.9931,2.9931,2.9931,2.9931,2.9931,3.016,3.0126,3.0125,3.0086,3.0078,3.0051,3.0041,3.0028,3.0016,2.9984,2.9965,2.9959,2.9946,2.9923,2.9902,2.99,2.9892,2.9883,2.9882,2.9923,2.9928,2.9933,2.9942,2.9881,2.9881,2.984,2.984,2.984]}]]